Eau Claire, WI

2:13 AM CST on February 08, 2016 (GMT -0600)
Chippewa Valley Regional

Weather History for KEAU - April, 2013

Change the Weather History Date:

Friday, April 26, 2013

  Actual Average Record
Temperature  
Mean Temperature 56 °F 51 °F  
Max Temperature 72 °F 63 °F 87 °F (1962)
Min Temperature 40 °F 39 °F 22 °F (1919)
Degree Days  
Heating Degree Days 9 14  
Month to date heating degree days 783 522  
Since 1 July heating degree days 7911 7587  
Cooling Degree Days 0 0  
Month to date cooling degree days 0 0  
Year to date cooling degree days 0 0  
Growing Degree Days 6 (Base 50)    
Moisture  
Dew Point 36 °F    
Average Humidity 55    
Maximum Humidity 80    
Minimum Humidity 29    
Precipitation  
Precipitation 0.02 in 0.11 in 1.89 in (1902)
Month to date precipitation 5.28 2.32  
Year to date precipitation 10.67 5.75  
Snow  
Snow 0.00 in 0.00 in 1.80 in (1988)
Month to date snowfall 8.8 1.8  
Since 1 July snowfall 75.0 46.7  
Snow Depth 0.00 in    
Sea Level Pressure  
Sea Level Pressure 30.07 in    
Wind  
Wind Speed 10 mph (SSW)    
Max Wind Speed 26 mph    
Max Gust Speed 32 mph    
Visibility 10 miles    
Events Rain    
T = Trace of Precipitation, MM = Missing Value Source: NWS Daily Summary

Daily Weather History Graph

Daily Weather History Graph

Search for Another Location

Airport or City:

Trip Planner

Search our weather history database for the weather conditions in past years. The results will help you decide how hot, cold, wet, or windy it might be!

Date:

Astronomy

Apr. 26, 2013 Rise Set
Actual Time 6:02 AM CDT 8:05 PM CDT
Civil Twilight 5:31 AM CDT 8:37 PM CDT
Nautical Twilight 4:52 AM CDT 9:16 PM CDT
Astronomical Twilight 4:09 AM CDT 9:59 PM CDT
Moon 9:32 PM CDT (4/26) 6:28 AM CDT (4/26)
Length of Visible Light 15h 06m
Length of Day
14h 02m
Full, 99% of the Moon is Illuminated
Apr 26
Full
May 2
Last Quarter
May 9
New
May 17
First Quarter
May 24
Full

Hourly Weather History & Observations

Time (CDT) Temp. Windchill Dew Point Humidity Pressure Visibility Wind Dir Wind Speed Gust Speed Precip Events Conditions
12:56 AM 39.0 °F - 27.0 °F 62% 30.17 in 10.0 mi Calm Calm - N/A   Overcast
1:56 AM 41.0 °F 35.8 °F 26.1 °F 55% 30.16 in 10.0 mi SSE 8.1 mph - N/A   Overcast
2:56 AM 42.1 °F 38.4 °F 25.0 °F 51% 30.13 in 10.0 mi SE 5.8 mph - N/A   Overcast
3:56 AM 43.0 °F 36.4 °F 28.0 °F 56% 30.09 in 10.0 mi SSE 12.7 mph - N/A   Mostly Cloudy
4:56 AM 44.1 °F 39.5 °F 28.9 °F 55% 30.10 in 10.0 mi SSW 8.1 mph - N/A   Overcast
5:56 AM 43.0 °F 39.5 °F 30.0 °F 60% 30.11 in 10.0 mi South 5.8 mph - 0.00 in Rain Light Rain
6:56 AM 44.1 °F 34.6 °F 34.0 °F 68% 30.06 in 9.0 mi SSE 26.5 mph 29.9 mph 0.02 in Rain Rain
7:56 AM 46.9 °F - 34.0 °F 61% 30.04 in 10.0 mi South 16.1 mph - 0.00 in   Mostly Cloudy
8:56 AM 51.1 °F - 35.1 °F 54% 30.06 in 10.0 mi South 17.3 mph 26.5 mph N/A   Partly Cloudy
9:56 AM 55.0 °F - 35.1 °F 47% 30.06 in 10.0 mi SSW 11.5 mph - N/A   Clear
10:56 AM 60.1 °F - 36.0 °F 41% 30.05 in 10.0 mi SSW 19.6 mph 26.5 mph N/A   Clear
11:56 AM 64.9 °F - 37.0 °F 36% 30.05 in 10.0 mi SSW 13.8 mph 23.0 mph N/A   Clear
12:56 PM 66.9 °F - 37.9 °F 34% 30.04 in 10.0 mi WSW 13.8 mph 21.9 mph N/A   Clear
1:56 PM 69.1 °F - 39.0 °F 33% 30.03 in 10.0 mi SW 13.8 mph 18.4 mph N/A   Clear
2:56 PM 70.0 °F - 39.9 °F 33% 30.04 in 10.0 mi WSW 15.0 mph 21.9 mph N/A   Clear
3:56 PM 72.0 °F - 39.0 °F 30% 30.02 in 10.0 mi WSW 17.3 mph 24.2 mph N/A   Clear
4:56 PM 71.1 °F - 37.9 °F 30% 30.02 in 10.0 mi WSW 16.1 mph 21.9 mph N/A   Clear
5:56 PM 72.0 °F - 39.9 °F 31% 30.03 in 10.0 mi West 10.4 mph - N/A   Partly Cloudy
6:56 PM 69.1 °F - 39.0 °F 33% 30.05 in 10.0 mi West 8.1 mph - N/A   Clear
7:56 PM 64.0 °F - 41.0 °F 43% 30.06 in 10.0 mi Calm Calm - N/A   Clear
8:56 PM 54.0 °F - 41.0 °F 62% 30.09 in 10.0 mi Calm Calm - N/A   Clear
9:56 PM 51.1 °F - 41.0 °F 68% 30.10 in 10.0 mi Calm Calm - N/A   Clear
10:56 PM 50.0 °F - 42.1 °F 74% 30.12 in 10.0 mi Calm Calm - N/A   Clear
11:56 PM 48.9 °F - 42.1 °F 77% 30.12 in 10.0 mi Calm Calm - N/A   Clear